Regional Weather Roundup
Issued by NWS

Home | Current Version | Previous Version | Text Only | Print | Product List | Glossary On
Versions: 1 2 3 4 5 6 7 8 9 10 11 12 13 14 15 16 17 18 19 20 21 22 23 24 25 26 27 28 29 30 31 32 33 34 35 36 37 38 39 40 41 42 43 44 45 46 47 48 49 50
000
ASUS44 KJAN 261910
RWRMS

MISSISSIPPI HOURLY WEATHER ROUNDUP
NATIONAL WEATHER SERVICE JACKSON MS
200 PM CDT THU APR 26 2018

NOTE: "FAIR: INDICATES FEW OR NO CLOUDS BELOW 12,000 FEET WITH NO
SIGNIFICANT WEATHER AND/OR OBSTRUCTIONS TO VISIBILITY.

MSZ001>002-007>008-010>013-018>021-025>028-034>036-262000-
NORTHWEST MISSISSIPPI

CITY           SKY/WX    TMP DP  RH WIND       PRES   REMARKS
BATESVILLE       N/A    N/A N/A N/A MISG        N/A
CLARKSDALE     CLOUDY    63  59  88 NW15      29.90S
CLEVELAND      CLOUDY    62  56  80 NW12G18   29.90S
GREENWOOD      PTSUNNY   65  53  65 NW10G20   29.88S
GREENVILLE     CLOUDY    63  52  67 NW14      29.92R
OLIVE BRANCH   CLOUDY    57  59 100 NW12      29.84F
OXFORD         RAIN      57  54  88 NW15G24   29.86R
TUNICA           N/A     59  55  88 NW15      29.90S
WINONA         CLOUDY    62  53  72 NW12G17   29.87R
$$

MSZ003>006-009-014>017-022>024-029>033-037>039-262000-
NORTHEAST MISSISSIPPI

CITY           SKY/WX    TMP DP  RH WIND       PRES   REMARKS
ABERDEEN         N/A     63  63 100 W15G22    29.83S
COLUMBUS AFB   CLOUDY    61  56  84 W15       29.82R
CORINTH        CLOUDY    61  57  88 NE14      29.81S
GOLDN TRIANGLE CLOUDY    61  52  72 W16G24    29.84R
STARKVILLE     CLOUDY    63  52  67 NW6G16    29.84S
TUPELO         PTSUNNY   63  55  75 SW5       29.79F
$$

MSZ040-058-262000-
CENTRAL MISSISSIPPI

CITY           SKY/WX    TMP DP  RH WIND       PRES   REMARKS
JACKSON INTL   CLOUDY    60  52  74 NW12G17   29.91S
JACKSON HAWKNS CLOUDY    61  53  75 W10       29.92S
MADISON        CLOUDY    59  52  77 W7        29.91S
MERIDIAN KEY   CLOUDY    65  51  60 W14G24    29.88S
MERIDIAN NAS   CLOUDY    63  53  70 W13       29.87S
RAYMOND        CLOUDY    61  54  77 W12G18    29.93S
VICKSBURG VKS  CLOUDY    63  52  67 NW12      29.96S
$$

MSZ059>079-262000-
SOUTH MISSISSIPPI

CITY           SKY/WX    TMP DP  RH WIND       PRES   REMARKS
COLUMBIA       MOCLDY    66  50  55 NW10      29.95F
HATTIESBURG    FAIR      69  51  52 W14G20    29.90F
LAUREL         MOCLDY    67  49  51 W15G21    29.90F
MCCOMB         FAIR      69  48  47 NW14G20   29.93F
NATCHEZ        CLOUDY    61  51  70 NW13      29.97F
PINE BELT      PTSUNNY   68  51  54 NW10G17   29.91S
$$

MSZ080>082-262000-
COASTAL MISSISSIPPI

CITY           SKY/WX    TMP DP  RH WIND       PRES   REMARKS
BAY ST LOUIS   MOSUNNY   72  54  53 NW10G16   29.89F
BILOXI         FAIR      75  56  50 W6        29.86F
PASCAGOULA     FAIR      77  54  44 NW8G16    29.86F
GULFPORT       FAIR      75  55  49 NW13G21   29.86F
$$

LAZ007>009-015>016-023>026-262000-
NORTHEAST LOUISIANA

CITY           SKY/WX    TMP DP  RH WIND       PRES   REMARKS
BASTROP        MOCLDY    65  52  61 NW10G16   29.96F
TALLULAH/VBURG CLOUDY    63  55  75 W8        29.95F
VIDALIA        CLOUDY    61  51  67 W8        29.96F
$$



USA.gov is the U.S. government's official web portal to all federal, state and local government web resources and services.